GLO1731 SBSN-SBBE

Flight info

Callsign GLO1731
Flight time 1h 3m
Altitude 37000
Route EMAKE DCT NUVUG UZ81 DADUD DCT PAKUT
Aircraft B38M/M-DFGHIJ4J7KLORWXY/LB1

Departure

Time 2026-04-20 13:02
Airport Santarém - Maestro Wilson Fonseca International Airport (SBSN)

Arrival

Time 2026-04-20 14:05
Airport Val de Cans/Júlio Cezar Ribeiro International Airport (SBBE)
Time Latitude Longitude Altitude Speed Heading
2026-04-20 12:49 -2.42382 -54.78528 193 ft 0 kts 142°
2026-04-20 12:52 -2.42376 -54.78533 193 ft 4 kts 146°
2026-04-20 12:53 -2.42352 -54.78542 201 ft 4 kts 185°
2026-04-20 12:53 -2.42331 -54.78532 206 ft 3 kts 232°
2026-04-20 12:53 -2.42330 -54.78530 208 ft 1 kts 233°
2026-04-20 12:56 -2.42330 -54.78531 208 ft 1 kts 233°
2026-04-20 12:57 -2.42349 -54.78553 202 ft 9 kts 229°
2026-04-20 12:57 -2.42316 -54.78621 193 ft 18 kts 319°
2026-04-20 12:57 -2.42253 -54.78680 193 ft 1 kts 316°
2026-04-20 12:57 -2.42251 -54.78681 192 ft 0 kts 316°
2026-04-20 12:58 -2.42241 -54.78692 199 ft 4 kts 315°
2026-04-20 12:58 -2.42198 -54.78735 198 ft 14 kts 313°
2026-04-20 12:58 -2.42173 -54.78867 203 ft 27 kts 261°
2026-04-20 12:58 -2.42206 -54.79062 197 ft 27 kts 261°
2026-04-20 12:59 -2.42236 -54.79247 190 ft 27 kts 261°
2026-04-20 12:59 -2.42264 -54.79417 187 ft 24 kts 260°
2026-04-20 12:59 -2.42292 -54.79589 186 ft 24 kts 261°
2026-04-20 12:59 -2.42319 -54.79759 183 ft 25 kts 261°
2026-04-20 13:00 -2.42352 -54.79931 189 ft 25 kts 263°
2026-04-20 13:00 -2.42378 -54.80104 182 ft 26 kts 261°
2026-04-20 13:00 -2.42411 -54.80253 180 ft 18 kts 234°
2026-04-20 13:00 -2.42428 -54.80323 180 ft 5 kts 322°
2026-04-20 13:01 -2.42405 -54.80306 179 ft 8 kts 93°
2026-04-20 13:01 -2.42402 -54.80275 180 ft 16 kts 77°
2026-04-20 13:01 -2.42339 -54.79878 184 ft 97 kts 80°
2026-04-20 13:01 -2.42188 -54.78995 207 ft 161 kts 78°
2026-04-20 13:02 -2.41969 -54.77839 520 ft 189 kts 79°
2026-04-20 13:02 -2.41745 -54.76516 1281 ft 198 kts 82°
2026-04-20 13:02 -2.41536 -54.75127 2272 ft 203 kts 82°
2026-04-20 13:02 -2.41324 -54.73771 2866 ft 229 kts 81°
2026-04-20 13:03 -2.41066 -54.72127 3715 ft 244 kts 81°
2026-04-20 13:03 -2.40790 -54.70391 4622 ft 260 kts 81°
2026-04-20 13:03 -2.40497 -54.68569 5624 ft 267 kts 81°
2026-04-20 13:03 -2.40199 -54.66720 6728 ft 272 kts 81°
2026-04-20 13:04 -2.39891 -54.64824 7694 ft 278 kts 81°
2026-04-20 13:04 -2.39579 -54.62907 8707 ft 282 kts 81°
2026-04-20 13:04 -2.39267 -54.60983 9682 ft 288 kts 81°
2026-04-20 13:04 -2.38947 -54.59014 10527 ft 297 kts 81°
2026-04-20 13:05 -2.38625 -54.57027 11049 ft 313 kts 81°
2026-04-20 13:05 -2.38267 -54.54825 11689 ft 326 kts 81°
2026-04-20 13:05 -2.37903 -54.52581 12581 ft 328 kts 82°
2026-04-20 13:05 -2.37449 -54.50321 13421 ft 334 kts 73°
2026-04-20 13:06 -2.36668 -54.48128 14240 ft 337 kts 71°
2026-04-20 13:06 -2.35929 -54.46038 14955 ft 340 kts 71°
2026-04-20 13:06 -2.35141 -54.43799 15656 ft 344 kts 71°
2026-04-20 13:06 -2.34342 -54.41529 16365 ft 347 kts 71°
2026-04-20 13:07 -2.33538 -54.39241 17051 ft 351 kts 71°
2026-04-20 13:07 -2.32723 -54.36923 17713 ft 355 kts 71°
2026-04-20 13:07 -2.31898 -54.34578 18370 ft 359 kts 71°
2026-04-20 13:07 -2.31067 -54.32215 18919 ft 362 kts 71°
2026-04-20 13:08 -2.30226 -54.29824 19461 ft 365 kts 71°
2026-04-20 13:08 -2.29390 -54.27447 19991 ft 369 kts 71°
2026-04-20 13:08 -2.28536 -54.25019 20523 ft 372 kts 71°
2026-04-20 13:08 -2.27672 -54.22562 21039 ft 375 kts 71°
2026-04-20 13:09 -2.26799 -54.20080 21561 ft 378 kts 71°
2026-04-20 13:09 -2.25941 -54.17582 22067 ft 381 kts 75°
2026-04-20 13:09 -2.25483 -54.14967 22571 ft 383 kts 82°
2026-04-20 13:09 -2.25107 -54.12314 23040 ft 387 kts 82°
2026-04-20 13:10 -2.24725 -54.09640 23526 ft 390 kts 82°
2026-04-20 13:10 -2.24339 -54.06940 23936 ft 393 kts 82°
2026-04-20 13:10 -2.23951 -54.04221 24343 ft 396 kts 82°
2026-04-20 13:10 -2.23562 -54.01496 24767 ft 398 kts 82°
2026-04-20 13:11 -2.23174 -53.98783 25144 ft 401 kts 82°
2026-04-20 13:11 -2.22777 -53.96007 25534 ft 403 kts 82°
2026-04-20 13:11 -2.22380 -53.93221 25939 ft 406 kts 82°
2026-04-20 13:11 -2.21980 -53.90422 26334 ft 408 kts 82°
2026-04-20 13:12 -2.21575 -53.87594 26723 ft 411 kts 82°
2026-04-20 13:12 -2.21169 -53.84751 27113 ft 414 kts 82°
2026-04-20 13:12 -2.20761 -53.81899 27484 ft 416 kts 82°
2026-04-20 13:12 -2.20351 -53.79028 27859 ft 419 kts 82°
2026-04-20 13:13 -2.19942 -53.76170 28227 ft 421 kts 82°
2026-04-20 13:13 -2.19668 -53.74255 28459 ft 423 kts 82°
2026-04-20 13:13 -2.19249 -53.71331 28806 ft 426 kts 82°
2026-04-20 13:13 -2.18692 -53.67427 29264 ft 429 kts 82°
2026-04-20 13:14 -2.18268 -53.64471 29606 ft 431 kts 82°
2026-04-20 13:14 -2.17986 -53.62494 29836 ft 433 kts 82°
2026-04-20 13:14 -2.17557 -53.59500 30152 ft 435 kts 82°
2026-04-20 13:14 -2.17149 -53.56645 30410 ft 438 kts 82°
2026-04-20 13:15 -2.16719 -53.53643 30699 ft 440 kts 82°
2026-04-20 13:15 -2.16282 -53.50594 30975 ft 442 kts 82°
2026-04-20 13:15 -2.15845 -53.47542 31252 ft 444 kts 82°
2026-04-20 13:15 -2.15266 -53.43495 31611 ft 447 kts 82°
2026-04-20 13:16 -2.14966 -53.41402 31797 ft 448 kts 82°
2026-04-20 13:16 -2.14580 -53.38705 32032 ft 450 kts 82°
2026-04-20 13:16 -2.14134 -53.35598 32313 ft 452 kts 82°
2026-04-20 13:16 -2.13688 -53.32480 32590 ft 454 kts 82°
2026-04-20 13:17 -2.13239 -53.29350 32851 ft 456 kts 82°
2026-04-20 13:17 -2.12787 -53.26201 33114 ft 458 kts 83°
2026-04-20 13:17 -2.12336 -53.23054 33383 ft 459 kts 82°
2026-04-20 13:17 -2.11888 -53.19929 33689 ft 460 kts 82°
2026-04-20 13:18 -2.11433 -53.16757 33957 ft 461 kts 82°
2026-04-20 13:18 -2.10978 -53.13580 34256 ft 461 kts 82°
2026-04-20 13:18 -2.10524 -53.10414 34581 ft 460 kts 82°
2026-04-20 13:18 -2.10070 -53.07249 34892 ft 459 kts 82°
2026-04-20 13:19 -2.09617 -53.04095 35208 ft 458 kts 82°
2026-04-20 13:19 -2.09165 -53.00947 35507 ft 457 kts 82°
2026-04-20 13:19 -2.08715 -52.97813 35824 ft 456 kts 82°
2026-04-20 13:19 -2.08266 -52.94680 36140 ft 455 kts 82°
2026-04-20 13:20 -2.07817 -52.91551 36433 ft 454 kts 82°
2026-04-20 13:20 -2.07368 -52.88426 36745 ft 453 kts 82°
2026-04-20 13:20 -2.06926 -52.85346 36987 ft 453 kts 82°
2026-04-20 13:21 -2.06033 -52.79134 36993 ft 449 kts 82°
2026-04-20 13:21 -2.05145 -52.72955 36994 ft 448 kts 82°
2026-04-20 13:22 -2.04260 -52.66795 36996 ft 448 kts 82°
2026-04-20 13:22 -2.03373 -52.60628 36994 ft 448 kts 82°
2026-04-20 13:23 -2.02487 -52.54460 36993 ft 448 kts 82°
2026-04-20 13:23 -2.01606 -52.48336 36992 ft 447 kts 82°
2026-04-20 13:24 -2.00721 -52.42184 36994 ft 447 kts 82°
2026-04-20 13:24 -1.99834 -52.36027 36988 ft 447 kts 82°
2026-04-20 13:25 -1.98953 -52.29901 36994 ft 447 kts 82°
2026-04-20 13:25 -1.98068 -52.23756 36988 ft 447 kts 82°
2026-04-20 13:26 -1.97181 -52.17602 36988 ft 447 kts 82°
2026-04-20 13:26 -1.96295 -52.11449 36991 ft 447 kts 82°
2026-04-20 13:27 -1.95408 -52.05298 36994 ft 447 kts 82°
2026-04-20 13:27 -1.94521 -51.99144 36994 ft 446 kts 83°
2026-04-20 13:28 -1.93636 -51.93008 36991 ft 446 kts 83°
2026-04-20 13:28 -1.92750 -51.86858 36988 ft 446 kts 83°
2026-04-20 13:29 -1.91868 -51.80750 36997 ft 447 kts 82°
2026-04-20 13:29 -1.90983 -51.74614 36988 ft 445 kts 82°
2026-04-20 13:30 -1.90098 -51.68484 36989 ft 445 kts 82°
2026-04-20 13:30 -1.89213 -51.62350 36989 ft 445 kts 82°
2026-04-20 13:31 -1.88325 -51.56209 36989 ft 445 kts 82°
2026-04-20 13:31 -1.87443 -51.50100 36993 ft 448 kts 82°
2026-04-20 13:32 -1.86553 -51.43937 36994 ft 447 kts 82°
2026-04-20 13:32 -1.85664 -51.37789 36988 ft 447 kts 82°
2026-04-20 13:33 -1.84774 -51.31625 36982 ft 449 kts 82°
2026-04-20 13:33 -1.83876 -51.25419 36993 ft 452 kts 82°
2026-04-20 13:34 -1.82976 -51.19197 36984 ft 451 kts 82°
2026-04-20 13:34 -1.82103 -51.13158 36988 ft 451 kts 82°
2026-04-20 13:35 -1.81210 -51.06985 36989 ft 451 kts 82°
2026-04-20 13:35 -1.80310 -51.00770 36988 ft 451 kts 82°
2026-04-20 13:36 -1.79824 -50.94530 37009 ft 451 kts 88°
2026-04-20 13:36 -1.79613 -50.88262 36985 ft 450 kts 88°
2026-04-20 13:37 -1.79410 -50.81995 36990 ft 451 kts 88°
2026-04-20 13:37 -1.79312 -50.78940 36855 ft 440 kts 88°
2026-04-20 13:37 -1.79213 -50.75897 36352 ft 437 kts 88°
2026-04-20 13:37 -1.79115 -50.72856 35715 ft 437 kts 88°
2026-04-20 13:38 -1.79017 -50.69821 35149 ft 437 kts 88°
2026-04-20 13:38 -1.78919 -50.66794 34668 ft 434 kts 88°
2026-04-20 13:38 -1.78821 -50.63776 34182 ft 432 kts 88°
2026-04-20 13:38 -1.78724 -50.60780 33641 ft 430 kts 88°
2026-04-20 13:39 -1.78629 -50.57841 33234 ft 427 kts 88°
2026-04-20 13:39 -1.78531 -50.54843 32901 ft 438 kts 88°
2026-04-20 13:39 -1.78431 -50.51748 32549 ft 451 kts 88°
2026-04-20 13:39 -1.78328 -50.48584 32186 ft 456 kts 88°
2026-04-20 13:40 -1.78225 -50.45414 31916 ft 456 kts 88°
2026-04-20 13:40 -1.78123 -50.42249 31739 ft 455 kts 88°
2026-04-20 13:40 -1.78019 -50.39086 31506 ft 455 kts 88°
2026-04-20 13:40 -1.77917 -50.35937 31023 ft 451 kts 88°
2026-04-20 13:41 -1.77815 -50.32794 30368 ft 451 kts 88°
2026-04-20 13:41 -1.77713 -50.29658 29636 ft 451 kts 88°
2026-04-20 13:41 -1.77611 -50.26535 28974 ft 449 kts 88°
2026-04-20 13:41 -1.77510 -50.23423 28451 ft 444 kts 88°
2026-04-20 13:42 -1.77411 -50.20389 27947 ft 440 kts 88°
2026-04-20 13:42 -1.77218 -50.14479 26885 ft 433 kts 88°
2026-04-20 13:42 -1.77115 -50.11474 26360 ft 430 kts 86°
2026-04-20 13:43 -1.76721 -50.08518 25751 ft 429 kts 81°
2026-04-20 13:43 -1.76291 -50.05579 25268 ft 425 kts 82°
2026-04-20 13:43 -1.75886 -50.02667 24776 ft 422 kts 82°
2026-04-20 13:43 -1.75494 -49.99768 24269 ft 420 kts 82°
2026-04-20 13:44 -1.75109 -49.96882 23763 ft 418 kts 82°
2026-04-20 13:44 -1.74727 -49.94019 23205 ft 415 kts 82°
2026-04-20 13:44 -1.74346 -49.91164 22668 ft 412 kts 82°
2026-04-20 13:44 -1.73969 -49.88336 22177 ft 408 kts 82°
2026-04-20 13:45 -1.73597 -49.85546 21708 ft 403 kts 82°
2026-04-20 13:45 -1.73228 -49.82777 21245 ft 399 kts 82°
2026-04-20 13:45 -1.72864 -49.80044 20794 ft 395 kts 82°
2026-04-20 13:45 -1.72506 -49.77366 20356 ft 391 kts 82°
2026-04-20 13:46 -1.72148 -49.74680 19920 ft 387 kts 82°
2026-04-20 13:46 -1.71798 -49.72061 19497 ft 384 kts 82°
2026-04-20 13:46 -1.71441 -49.69385 19067 ft 381 kts 82°
2026-04-20 13:46 -1.71092 -49.66769 18649 ft 377 kts 82°
2026-04-20 13:47 -1.70747 -49.64184 18238 ft 375 kts 82°
2026-04-20 13:47 -1.70404 -49.61615 17778 ft 371 kts 82°
2026-04-20 13:47 -1.70063 -49.59063 17354 ft 368 kts 82°
2026-04-20 13:47 -1.69727 -49.56542 16944 ft 364 kts 82°
2026-04-20 13:48 -1.69394 -49.54050 16553 ft 360 kts 82°
2026-04-20 13:48 -1.69065 -49.51585 16162 ft 357 kts 82°
2026-04-20 13:48 -1.68738 -49.49135 15771 ft 354 kts 82°
2026-04-20 13:48 -1.68414 -49.46707 15390 ft 351 kts 81°
2026-04-20 13:49 -1.68092 -49.44305 14985 ft 348 kts 81°
2026-04-20 13:49 -1.67765 -49.41908 14579 ft 346 kts 81°
2026-04-20 13:49 -1.67441 -49.39535 14208 ft 344 kts 81°
2026-04-20 13:49 -1.67120 -49.37173 13847 ft 341 kts 81°
2026-04-20 13:50 -1.66806 -49.34864 13433 ft 339 kts 81°
2026-04-20 13:50 -1.66489 -49.32537 13037 ft 336 kts 81°
2026-04-20 13:50 -1.66175 -49.30231 12657 ft 333 kts 82°
2026-04-20 13:50 -1.65863 -49.27942 12285 ft 330 kts 82°
2026-04-20 13:51 -1.65554 -49.25673 11922 ft 328 kts 82°
2026-04-20 13:51 -1.65247 -49.23421 11550 ft 325 kts 82°
2026-04-20 13:51 -1.64943 -49.21190 11191 ft 323 kts 82°
2026-04-20 13:51 -1.64642 -49.18978 10864 ft 320 kts 82°
2026-04-20 13:52 -1.64346 -49.16804 10696 ft 311 kts 82°
2026-04-20 13:52 -1.64058 -49.14689 10555 ft 302 kts 82°
2026-04-20 13:52 -1.63778 -49.12641 10416 ft 293 kts 82°
2026-04-20 13:52 -1.63506 -49.10646 10278 ft 285 kts 82°
2026-04-20 13:53 -1.63243 -49.08718 10130 ft 277 kts 82°
2026-04-20 13:53 -1.62985 -49.06836 9969 ft 270 kts 83°
2026-04-20 13:53 -1.62732 -49.04985 9689 ft 268 kts 83°
2026-04-20 13:53 -1.62481 -49.03151 9379 ft 266 kts 83°
2026-04-20 13:54 -1.62234 -49.01344 9088 ft 264 kts 83°
2026-04-20 13:54 -1.61986 -48.99533 8795 ft 262 kts 83°
2026-04-20 13:54 -1.61740 -48.97729 8522 ft 260 kts 83°
2026-04-20 13:54 -1.61496 -48.95945 8245 ft 258 kts 83°
2026-04-20 13:55 -1.61254 -48.94177 7971 ft 256 kts 83°
2026-04-20 13:55 -1.61013 -48.92418 7709 ft 254 kts 83°
2026-04-20 13:55 -1.60792 -48.90801 7456 ft 256 kts 83°
2026-04-20 13:55 -1.60548 -48.89020 7176 ft 262 kts 83°
2026-04-20 13:56 -1.60300 -48.87207 6906 ft 264 kts 83°
2026-04-20 13:56 -1.60052 -48.85390 6620 ft 265 kts 83°
2026-04-20 13:56 -1.59801 -48.83557 6316 ft 265 kts 83°
2026-04-20 13:56 -1.59551 -48.81736 6010 ft 264 kts 83°
2026-04-20 13:57 -1.59304 -48.79924 5715 ft 262 kts 83°
2026-04-20 13:57 -1.59057 -48.78123 5422 ft 261 kts 83°
2026-04-20 13:57 -1.58812 -48.76335 5144 ft 260 kts 83°
2026-04-20 13:57 -1.58567 -48.74550 4938 ft 256 kts 83°
2026-04-20 13:58 -1.58329 -48.72814 4805 ft 248 kts 83°
2026-04-20 13:58 -1.58102 -48.71158 4668 ft 240 kts 83°
2026-04-20 13:58 -1.57880 -48.69536 4563 ft 231 kts 83°
2026-04-20 13:58 -1.57586 -48.67990 4482 ft 224 kts 69°
2026-04-20 13:59 -1.56755 -48.66735 4461 ft 211 kts 49°
2026-04-20 13:59 -1.55772 -48.65709 4331 ft 200 kts 47°
2026-04-20 13:59 -1.54810 -48.64729 4097 ft 195 kts 47°
2026-04-20 13:59 -1.53870 -48.63775 3870 ft 189 kts 47°
2026-04-20 14:00 -1.52960 -48.62854 3702 ft 183 kts 46°
2026-04-20 14:00 -1.52075 -48.61957 3597 ft 177 kts 47°
2026-04-20 14:00 -1.51224 -48.61094 3481 ft 173 kts 47°
2026-04-20 14:00 -1.50396 -48.60251 3226 ft 165 kts 47°
2026-04-20 14:01 -1.49607 -48.59449 2969 ft 159 kts 47°
2026-04-20 14:01 -1.48841 -48.58670 2798 ft 159 kts 47°
2026-04-20 14:01 -1.48066 -48.57886 2572 ft 157 kts 47°
2026-04-20 14:01 -1.47295 -48.57106 2370 ft 158 kts 47°
2026-04-20 14:02 -1.46523 -48.56323 2142 ft 158 kts 47°
2026-04-20 14:02 -1.45756 -48.55544 1981 ft 157 kts 46°
2026-04-20 14:02 -1.44986 -48.54764 1794 ft 157 kts 46°
2026-04-20 14:02 -1.44481 -48.54252 1636 ft 156 kts 47°
2026-04-20 14:03 -1.43723 -48.53482 1414 ft 155 kts 46°
2026-04-20 14:03 -1.42966 -48.52716 1202 ft 155 kts 46°
2026-04-20 14:03 -1.42211 -48.51952 989 ft 154 kts 46°
2026-04-20 14:03 -1.41457 -48.51187 799 ft 155 kts 47°
2026-04-20 14:04 -1.40698 -48.50417 612 ft 156 kts 47°
2026-04-20 14:04 -1.39970 -48.49679 405 ft 157 kts 44°
2026-04-20 14:04 -1.39429 -48.49134 273 ft 156 kts 45°
2026-04-20 14:04 -1.38654 -48.48363 71 ft 157 kts 45°
2026-04-20 14:05 -1.37972 -48.47669 43 ft 112 kts 46°
2026-04-20 14:05 -1.37607 -48.47293 44 ft 52 kts 44°
2026-04-20 14:05 -1.37341 -48.47027 47 ft 54 kts 44°
2026-04-20 14:05 -1.37125 -48.46811 46 ft 27 kts 44°
2026-04-20 14:06 -1.37020 -48.46742 46 ft 6 kts 72°
2026-04-20 14:06 -1.37039 -48.46723 46 ft 4 kts 185°
2026-04-20 14:06 -1.37076 -48.46755 44 ft 12 kts 225°
2026-04-20 14:06 -1.37164 -48.46847 46 ft 24 kts 226°
2026-04-20 14:07 -1.37291 -48.46975 47 ft 22 kts 227°
2026-04-20 14:07 -1.37406 -48.47091 46 ft 25 kts 226°
2026-04-20 14:07 -1.37511 -48.47199 45 ft 22 kts 224°
2026-04-20 14:07 -1.37627 -48.47315 44 ft 25 kts 225°
2026-04-20 14:08 -1.37743 -48.47430 43 ft 22 kts 226°
2026-04-20 14:08 -1.37853 -48.47543 43 ft 24 kts 224°
2026-04-20 14:08 -1.37991 -48.47619 41 ft 22 kts 192°
2026-04-20 14:08 -1.38143 -48.47636 42 ft 22 kts 185°
2026-04-20 14:09 -1.38303 -48.47651 45 ft 24 kts 186°
2026-04-20 14:09 -1.38475 -48.47666 46 ft 25 kts 185°
2026-04-20 14:09 -1.38634 -48.47684 47 ft 20 kts 201°
2026-04-20 14:09 -1.38674 -48.47782 45 ft 14 kts 243°
2026-04-20 14:10 -1.38747 -48.47803 45 ft 12 kts 173°
2026-04-20 14:10 -1.38843 -48.47807 45 ft 17 kts 186°
2026-04-20 14:10 -1.38985 -48.47817 45 ft 22 kts 186°
2026-04-20 14:10 -1.39044 -48.47868 45 ft 9 kts 272°
2026-04-20 14:11 -1.39042 -48.47890 45 ft 2 kts 274°
2026-04-20 14:11 -1.39042 -48.47898 45 ft 0 kts 275°